Regional Weather Roundup
Issued by NWS Upton, NY

Home | Current Version | Previous Version | Text Only | Print | Product List | Glossary On
Versions: 1 2 3 4 5 6 7 8 9 10 11 12 13 14 15 16 17 18 19 20 21 22 23 24 25 26 27 28 29 30 31 32 33 34 35 36 37 38 39 40 41 42 43 44 45 46 47 48 49 50
000
ASUS41 KOKX 061518
RWROKX

REGIONAL WEATHER ROUNDUP
NATIONAL WEATHER SERVICE NEW YORK NY
1100 AM EDT MON JUL 06 2015

NOTE: "FAIR" INDICATES FEW OR NO CLOUDS BELOW 12,000 FEET WITH NO
SIGNIFICANT WEATHER AND/OR OBSTRUCTIONS TO VISIBILITY.

NYZ071-072-176-178-NJZ106-104-061600-
NEW YORK CITY METRO AREA


CITY           SKY/WX    TMP DP  RH WIND       PRES   REMARKS
CENTRAL PARK   PTSUNNY   80  66  62 VRB5      30.19S
LAGUARDIA APRT PTSUNNY   82  65  56 S12       30.16R
KENNEDY INTL   PTSUNNY   79  68  69 S6        30.19R
NEWARK/LIBERTY PTSUNNY   81  66  60 S7        30.16S
BRNX BOT. GARD   N/A     79  66  65 SE7       30.19R
TETERBORO      PTSUNNY   80  65  59 S8        30.16R
$$

NYZ177-179-078>081-061600-
LONG ISLAND NEW YORK

CITY           SKY/WX    TMP DP  RH WIND       PRES   REMARKS
FARMINGDALE    MOSUNNY   80  68  66 S9        30.18R
ISLIP          PTSUNNY   79  67  66 SW13      30.17R
SHIRLEY        PTSUNNY   77  68  73 SW12      30.19R
WESTHAMPTON    PTSUNNY   78  67  68 SW8       30.19S
MONTAUK POINT    N/A     77  70  79 VRB3      30.19R
$$

NYZ052-065-067-061600-
HUDSON VALLEY

CITY           SKY/WX    TMP DP  RH WIND       PRES   REMARKS
WHITE PLAINS   PTSUNNY   79  68  69 S7        30.18R
NEWBURGH       SUNNY     75  68  78 CALM      30.18S
MONTGOMERY     PTSUNNY   77  68  73 S6        30.17R
POUGHKEEPSIE   PTSUNNY   78  64  61 CALM      30.16R
ALBANY         MOSUNNY   77  64  64 VRB3      30.18R
$$

NJZ001-105-106-008-010-013-015-019>022-104-061600-
NEW JERSEY

CITY           SKY/WX    TMP DP  RH WIND       PRES   REMARKS
NEWARK/LIBERTY PTSUNNY   81  66  60 S7        30.16S
TETERBORO      PTSUNNY   80  65  59 S8        30.16R
CALDWELL       PTSUNNY   80  67  64 VRB3      30.17R
MORRISTOWN     PTSUNNY   82  70  65 CALM      30.18R
SOMERVILLE     PTSUNNY   79  68  69 S6        30.15R
SUSSEX         PTSUNNY   78  67  68 VRB3      30.17R
ANDOVER          N/A     77  68  73 SW6       30.18R
TRENTON        PTSUNNY   79  68  69 S10       30.16R
MILLVILLE      CLOUDY    78  72  81 VRB5      30.16R
ATLANTIC CITY  CLOUDY    79  70  74 SE10      30.17S
WRIGHTSTOWN    MOSUNNY   79  70  73 SE8       30.15R
TOMS RIVER     PTSUNNY   79  66  65 SE7       30.18R
BELMAR         MOSUNNY   79  64  61 SE9       30.18R
$$

PAZ047>061-062-071-061600-
EASTERN PENNSYLVANIA

CITY           SKY/WX    TMP DP  RH WIND       PRES   REMARKS
PHILADELPHIA   CLOUDY    81  70  69 SE7       30.16R
ALLENTOWN      CLOUDY    79  67  66 VRB6      30.17R
SCRANTON       CLOUDY    77  65  66 CALM      30.16F
$$

CTZ002-004>006-009-010-012-RIZ004-006-007-MAZ004-011-015-061600-
SOUTHERN NEW ENGLAND
 IN CT

CITY           SKY/WX    TMP DP  RH WIND       PRES   REMARKS
BRADLEY INTL   PTSUNNY   77  64  64 VRB3      30.17R
HARTFORD       MOSUNNY   78  65  63 SE7       30.17R
DANBURY        PTSUNNY   78  62  57 SW7       30.19R
WTRBRY/OXFORD  MOSUNNY   79  63  57 MISG      30.21R
BRIDGEPORT     PTSUNNY   76  68  76 SW3       30.17R
MERIDEN        MOSUNNY   80  66  62 CALM      30.17R
NEW HAVEN      PTSUNNY   75  68  78 S6        30.18R
CHESTER        FAIR      79  64  61 W6        30.19R
GROTON         MOSUNNY   73  67  81 S6        30.17R
WILLIMANTIC    MOSUNNY   78  65  63 CALM      30.18R

 IN RI

CITY           SKY/WX    TMP DP  RH WIND       PRES   REMARKS
PROVIDENCE     PTSUNNY   79  67  66 S5        30.17S
BLOCK ISLAND   PTSUNNY   75  66  73 W5        30.19R
WESTERLY       MOSUNNY   77  66  68 SW6       30.18R

 IN MA

CITY           SKY/WX    TMP DP  RH WIND       PRES   REMARKS
BOSTON         MOSUNNY   77  63  61 SE7       30.17R
WORCESTER      SUNNY     80  56  43 NW7       30.21R
WESTFIELD      SUNNY     77  62  59 S3        30.17S
PROVINCETOWN   MOSUNNY   79  18  10 NW7       30.18R
NANTUCKET      PTSUNNY   72  66  81 SW12      30.19R
$$

ANZ330-335-338-340-345-350-353-355-061600-
COASTAL MARINE OBSERVATIONS


STATION/POSITION TIME  SKY/WX   TEMP    WIND        PRES    VSBY  WAVE
                                AIR SEA DIR/SP/G                  HT/PER
                 (UTC)          (F)     (DEG/KT/KT) (MB)    (MI)  (FT/S)
NY HARB ENTRANCE 1450            71 71  160/  6/  6 1021.6          2/ 7
4S FIRE IS       1403               70                N/A           2/ 7
20S FIRE ISLAND  1450            71 71  160/  6/  8 1021.6          2/ 6
GREAT SOUTH BAY  1430            72 76  220/  8/ 12   N/A
23SW MTP         1450            70 69  220/  8/  8 1021.8          2/ 7
HUDSON CANYON    NOT AVBL
KINGS POINT      1400            74 80   20/  4/  5 1020.7
CENTRAL LI SOUND NOT AVBL
EASTERN LI SOUND 1400            69 65  160/  2/  4   N/A
ROBBINS REEF     1400            72     160/  9/ 10 1020.2
$$


>>>>>>>>>>>>>>>>>>>>>>>>>>>> KEY <<<<<<<<<<<<<<<<<<<<<<<<<<<
>                                                          <
>     SKY/WX - SKY CONDITION/PRESENT WEATHER               <
>     TMP    - TEMPERATURE IN FAHRENHEIT                   <
>     DP     - DEWPOINT IN FAHRENHEIT                      <
>     RH     - RELATIVE HUMIDITY IN PERCENT                <
>     WIND   - DIRECTION AND SPEED IN MPH                  <
>     PRES   - MEAN SEA LEVEL PRESSURE IN INCHES OF HG     <
>     WCI    - WIND CHILL INDEX                            <
>     VSB    - VISIBILITY IN MILES                         <
>     HX     - HEAT INDEX                                  <
>     TC     - TEMPERATURE IN CELSIUS                      <
>     VRB    - VARIABLE WIND DIRECTION                     <
>                                                          <
>>>>>>>>>>>>>>>>>>>>>>>>>>>> KEY <<<<<<<<<<<<<<<<<<<<<<<<<<<




USA.gov is the U.S. government's official web portal to all federal, state and local government web resources and services.